Simultaneous Nadir Overpasses (SNOs) Predictions

Prediction of SNOs between GOES-16 and NOAA-20 Satellite Orbit:

Table of predicted SNOs for the next 14.0 days since TLE Epoch: 4/13/2024
Index Date Time (GOES-16) GOES-16 Lat,Lon NOAA-20 Lat,Lon Distance(km) Time Diff (sec)
1 04/13/2024 18:40:05 0.01, -75.21 -0.80, -78.88 418.69 80
2 04/14/2024 18:24:05 0.01, -75.21 0.20, -74.38 95.43 80
3 04/17/2024 06:24:41 -0.00, -75.23 -0.00, -75.17 7.07 80
4 04/19/2024 18:28:07 0.00, -75.26 -0.14, -76.01 85.53 80
5 04/20/2024 18:12:08 0.00, -75.27 0.87, -71.50 429.90 80
6 04/22/2024 06:34:03 -0.00, -75.30 0.33, -76.81 171.55 80
7 04/23/2024 06:12:43 -0.00, -75.32 -0.68, -72.30 344.02 80
8 04/24/2024 18:34:48 0.00, -75.34 -0.51, -77.64 262.25 80
9 04/25/2024 18:18:48 0.00, -75.36 0.51, -73.13 253.55 80
